Location: Stull Observatory
(42.2506°N, 77.7903°W)
Time: 20:36:20
(UTC-04:00)

ISS - All Passes

Search period start: 25 May 2016 00:00
Search period end: 04 June 2016 00:00
Orbit: 402 x 404 km, 51.6° (Epoch: 25 May)

Date Brightness Start Highest point End Pass type
(mag) Time Alt. Az. Time Alt. Az. Time Alt. Az.
25 May - 00:52:23 10° WNW 00:55:08 24° NNW 00:57:53 10° NE visible
25 May - 02:30:19 10° NW 02:32:25 16° N 02:34:30 10° NE visible
25 May - 04:06:48 10° NW 04:09:39 27° NNE 04:12:30 10° E visible
25 May - 05:43:03 10° WNW 05:46:15 52° SW 05:49:26 10° SE daylight
25 May - 22:22:49 10° SSW 22:25:48 33° SE 22:28:47 10° ENE visible
25 May - 23:59:12 10° W 00:02:14 34° NNW 00:05:16 10° NE visible
26 May - 01:37:14 10° NW 01:39:23 16° N 01:41:32 10° NE visible
26 May - 03:14:09 10° NW 03:16:43 21° NNE 03:19:16 10° ENE visible
26 May - 04:50:16 10° NW 04:53:32 81° NNE 04:56:48 10° ESE visible
26 May - 06:28:14 10° WSW 06:29:33 12° SW 06:30:52 10° SSW daylight
26 May - 21:30:56 10° S 21:33:14 18° SE 21:35:31 10° E visible
26 May - 23:06:10 10° WSW 23:09:24 56° NNW 23:12:37 10° NE visible
27 May - 00:44:00 10° WNW 00:46:22 18° NNW 00:48:44 10° NE visible
27 May - 02:21:26 10° NW 02:23:43 17° N 02:26:00 10° NE visible
27 May - 03:57:36 10° NW 04:00:46 46° NNE 04:03:55 10° ESE visible
27 May - 05:34:24 10° W 05:37:01 22° SW 05:39:37 10° S daylight
27 May - 22:13:22 10° SW 22:16:38 80° SE 22:19:54 10° ENE visible
27 May - 23:50:43 10° WNW 23:53:23 22° NNW 23:56:03 10° NE visible
28 May - 01:28:35 10° NW 01:30:42 16° N 01:32:48 10° NE visible
28 May - 03:04:57 10° NW 03:07:53 30° NNE 03:10:49 10° E visible
28 May - 04:41:18 10° WNW 04:44:25 42° SW 04:47:31 10° SSE visible
28 May - 21:20:52 10° SSW 21:23:57 40° SE 21:27:03 10° ENE visible
28 May - 22:57:30 10° W 23:00:28 31° NNW 23:03:25 10° NE visible
29 May - 00:35:32 10° NW 00:37:39 16° N 00:39:46 10° NE visible
29 May - 02:12:19 10° NW 02:14:57 22° NNE 02:17:36 10° ENE visible
29 May - 03:48:27 10° WNW 03:51:43 84° SW 03:54:59 10° SE visible
29 May - 20:28:47 10° S 20:31:20 21° SE 20:33:55 10° E daylight
29 May - 22:04:25 10° WSW 22:07:36 48° NNW 22:10:47 10° NE visible
29 May - 23:42:19 10° NW 23:44:37 17° N 23:46:55 10° NE visible
30 May - 01:19:37 10° NW 01:21:58 18° N 01:24:19 10° ENE visible
30 May - 02:55:44 10° NW 02:58:57 54° NNE 03:02:09 10° ESE visible
30 May - 04:32:46 10° W 04:35:08 19° SW 04:37:29 10° S visible
30 May - 19:37:41 10° SSE 19:38:49 11° SE 19:39:57 10° ESE daylight
30 May - 21:11:32 10° WSW 21:14:47 85° NW 21:18:05 10° NE visible
30 May - 22:49:02 10° WNW 22:51:37 21° NNW 22:54:12 10° NE visible
31 May - 00:26:47 10° NW 00:28:57 16° N 00:31:05 10° NE visible
31 May - 02:03:05 10° NW 02:06:06 33° NNE 02:09:06 10° E visible
31 May - 03:39:32 10° WNW 03:42:33 35° SW 03:45:33 10° SSE visible
31 May - 20:18:55 10° SW 20:22:05 50° SE 20:25:15 10° ENE daylight
31 May - 21:55:47 10° W 21:58:40 28° NNW 22:01:32 10° NE visible
31 May - 23:33:47 10° NW 23:35:54 16° N 23:37:59 10° NE visible
01 Jun - 01:10:26 10° NW 01:13:11 24° NNE 01:15:55 10° ENE visible
01 Jun - 02:46:37 10° WNW 02:49:52 69° SW 02:53:07 10° SE visible
01 Jun - 19:26:40 10° SSW 19:29:26 26° SE 19:32:14 10° ENE daylight
01 Jun - 21:02:38 10° W 21:05:46 41° NNW 21:08:54 10° NE daylight
01 Jun - 22:40:37 10° NW 22:42:51 17° N 22:45:04 10° NE visible
02 Jun - 00:17:46 10° NW 00:20:12 19° NNE 00:22:38 10° ENE visible
02 Jun - 01:53:52 10° NW 01:57:07 64° NNE 02:00:21 10° ESE visible
02 Jun - 03:31:12 10° W 03:33:13 15° SW 03:35:14 10° S night (unlit)
02 Jun - 18:35:07 10° SSE 18:36:53 14° SE 18:38:40 10° E daylight
02 Jun - 20:09:41 10° WSW 20:12:57 71° NNW 20:16:12 10° NE daylight
02 Jun - 21:47:20 10° WNW 21:49:50 20° NNW 21:52:19 10° NE visible
02 Jun - 23:24:58 10° NW 23:27:10 16° N 23:29:21 10° NE visible
03 Jun - 01:01:11 10° NW 01:04:17 38° NNE 01:07:22 10° E visible
03 Jun - 02:37:46 10° WNW 02:40:39 29° SW 02:43:31 10° SSE visible
03 Jun - 19:16:58 10° SW 19:20:12 61° SE 19:23:26 10° ENE daylight
03 Jun - 20:54:04 10° WNW 20:56:51 25° NNW 20:59:38 10° NE daylight
03 Jun - 22:32:01 10° NW 22:34:07 16° N 22:36:12 10° NE visible
